(2016 AH164) |
Classification: Apollo [NEO] SPK-ID: 3739705 |
[ hide orbit diagram ]
For accurate long-term ephemerides, please instead use our Horizons system.This orbit viewer was implemented using two-body methods, and hence should not be used for determining accurate long-term trajectories (over several years or decades) or planetary encounter circumstances.
Orbital Elements at Epoch 2459200.5 (2020-Dec-17.0) TDB
Reference: JPL 6 (heliocentric ecliptic J2000)
Element | Value | Uncertainty (1-sigma) | Units |
e | .2489485707980508 | 5.1069e-05 | |
a | 1.150718694076607 | 1.4678e-05 | au |
q | .8642489197956361 | 4.7743e-05 | au |
i | 1.723141167011063 | 0.0020195 | deg |
node | 290.5450439593003 | 0.043388 | deg |
peri | 113.1284554861127 | 0.035676 | deg |
M | 43.09257816363891 | 0.12364 | deg |
tp | 2459146.530032453240 (2020-Oct-24.03003245) | 0.15382 | TDB |
period | 450.8708725445403 1.23 | 0.0086267 2.362e-05 | d yr |
n | .7984547725788975 | 1.5277e-05 | deg/d |
Q | 1.437188468357578 | 1.8332e-05 | au |
|
| | Orbit Determination Parameters
Additional Information
|
[ hide covariance matrix ]
Orbital Elements at Epoch 2457401.5 (2016-Jan-14.0) TDB
Reference: JPL 6 (heliocentric ecliptic J2000)
Element | Value | Uncertainty (1-sigma) | Units |
e | .2505781518339197 | 6.4429e-05 | |
q | .8625978591246506 | 2.7928e-05 | au |
tp | 2457345.998116323757 (2015-Nov-19.49811632) | 0.0021803 | TDB |
node | 291.1007840053003 | 0.00027144 | deg |
peri | 112.7573513237332 | 0.00098243 | deg |
i | 1.750623279203263 | 0.00042612 | deg |
|
| | Orbit Determination Parameters
Additional Information
|
Orbit Covariance (6×6)
|
|
e |
q |
tp |
node |
peri |
i |
e |
4.151114377940501E-9 |
-1.799133577412731E-9 |
1.400232885377312E-7 |
1.352229667881394E-8 |
-6.259612225898026E-8 |
2.743261958359034E-8 |
q |
-1.799133577412731E-9 |
7.799742973532059E-10 |
-6.066116647010871E-8 |
-5.877956707886946E-9 |
2.719650890242516E-8 |
-1.189052358476778E-8 |
tp |
1.400232885377312E-7 |
-6.066116647010871E-8 |
4.753814226513156E-6 |
4.816486555619245E-7 |
-2.103405877500997E-6 |
9.253722542458384E-7 |
node |
1.352229667881394E-8 |
-5.877956707886946E-9 |
4.816486555619245E-7 |
7.368029253785001E-8 |
-2.098174799262768E-7 |
8.984877298575153E-8 |
peri |
-6.259612225898026E-8 |
2.719650890242516E-8 |
-2.103405877500997E-6 |
-2.098174799262768E-7 |
9.651629047565637E-7 |
-4.14227902601481E-7 |
i |
2.743261958359034E-8 |
-1.189052358476778E-8 |
9.253722542458384E-7 |
8.984877298575153E-8 |
-4.14227902601481E-7 |
1.815799660613194E-7 |
|
Physical Parameter Table
Parameter |
Symbol |
Value |
Units |
Sigma |
Reference |
Notes |
absolute magnitude |
H |
29.7 |
|
n/a |
MPO365030 |
|
|
[ show close-approach data ]
|